Total_Precipitation_Accumulation
0.28 0.08 0.01 0.00 0.00 0.00 0.00 0.00 0.00 0.00 0.00 0.00 0.00 0.00 0.00 0.00 0.00 0.00 0.00 0.00 0.00 0.00 0.00 0.00 0.00 0.00 0.00 0.02 0.02 0.01 0.01 0.02 0.00 0.00 0.01 0.02 0.01 0.01 0.01 0.02 0.02 0.02 0.02 0.03 0.01 0.01 0.02 0.02 0.01 0.01 0.02 0.03 0.03 0.03 0.03 0.02 0.03 0.03 0.05 0.10 0.16 0.18 0.27 0.26 0.39 0.14 0.05 0.01 0.01 0.01 0.01 0.02 0.10 0.15 0.22 0.23 0.26 0.30 0.17 0.44 0.41 0.45 0.15 0.21 0.29
0.12 0.18 0.35 0.04 0.00 0.00 0.00 0.00 0.00 0.00 0.00 0.00 0.00 0.00 0.00 0.00 0.00 0.00 0.00 0.00 0.00 0.00 0.02 0.03 0.04 0.01 0.00 0.00 0.00 0.01 0.02 0.02 0.03 0.01 0.01 0.01 0.02 0.01 0.02 0.02 0.02 0.01 0.02 0.01 0.01 0.01 0.01 0.02 0.03 0.02 0.02 0.03 0.04 0.03 0.03 0.05 0.09 0.08 0.12 0.12 0.22 0.32 0.32 0.57 0.21 0.21 0.07 0.02 0.02 0.03 0.02 0.02 0.02 0.02 0.20 0.06 0.07 0.36 0.36 0.14 0.24 0.40 0.31 0.27 0.29
0.11 0.24 0.15 0.18 0.06 0.03 0.03 0.00 0.00 0.00 0.00 0.00 0.00 0.00 0.00 0.00 0.00 0.00 0.00 0.00 0.02 0.02 0.01 0.00 0.01 0.00 0.02 0.00 0.01 0.01 0.01 0.07 0.05 0.01 0.02 0.01 0.01 0.02 0.02 0.03 0.02 0.01 0.02 0.01 0.01 0.01 0.01 0.01 0.01 0.01 0.02 0.03 0.04 0.04 0.02 0.04 0.05 0.08 0.07 0.07 0.12 0.08 0.13 0.21 0.29 0.21 0.10 0.06 0.01 0.03 0.02 0.02 0.02 0.02 0.01 0.03 0.08 0.06 0.12 0.17 0.33 0.15 0.20 0.14 0.18
0.49 0.49 0.29 0.39 0.21 0.08 0.07 0.04 0.00 0.00 0.00 0.01 0.03 0.06 0.01 0.01 0.02 0.02 0.03 0.04 0.03 0.03 0.00 0.00 0.02 0.06 0.00 0.01 0.02 0.01 0.02 0.06 0.03 0.04 0.01 0.01 0.03 0.03 0.03 0.03 0.02 0.02 0.03 0.01 0.00 0.00 0.01 0.01 0.01 0.01 0.01 0.02 0.04 0.04 0.06 0.08 0.07 0.05 0.08 0.06 0.11 0.06 0.08 0.11 0.22 0.32 0.21 0.17 0.03 0.02 0.02 0.02 0.02 0.01 0.01 0.01 0.01 0.02 0.06 0.14 0.22 0.36 0.34 0.18 0.09
0.27 0.38 0.43 0.69 0.52 0.22 0.25 0.16 0.03 0.00 0.03 0.03 0.01 0.01 0.00 0.01 0.01 0.03 0.04 0.08 0.03 0.01 0.00 0.02 0.01 0.01 0.02 0.02 0.04 0.02 0.03 0.02 0.01 0.02 0.02 0.02 0.01 0.03 0.02 0.04 0.02 0.03 0.01 0.00 0.00 0.01 0.02 0.02 0.01 0.00 0.00 0.02 0.02 0.04 0.12 0.17 0.23 0.17 0.16 0.16 0.23 0.10 0.17 0.28 0.42 0.36 0.22 0.23 0.09 0.04 0.02 0.04 0.03 0.02 0.02 0.05 0.03 0.03 0.04 0.13 0.05 0.09 0.17 0.14 0.07
0.94 1.71 1.03 0.63 1.08 1.83 1.15 0.25 0.02 0.14 0.08 0.04 0.03 0.02 0.02 0.02 0.03 0.04 0.03 0.02 0.02 0.02 0.02 0.01 0.01 0.03 0.02 0.04 0.04 0.03 0.02 0.08 0.08 0.07 0.04 0.03 0.01 0.02 0.01 0.03 0.03 0.03 0.01 0.01 0.00 0.01 0.02 0.02 0.00 0.01 0.01 0.03 0.03 0.04 0.19 0.32 0.18 0.10 0.21 0.14 0.12 0.22 0.29 0.22 0.16 0.41 0.26 0.14 0.24 0.19 0.08 0.09 0.08 0.08 0.04 0.07 0.09 0.11 0.09 0.17 0.11 0.11 0.13 0.17 0.08
0.56 0.96 0.51 0.55 1.43 2.11 0.79 0.18 0.08 0.14 0.14 0.10 0.06 0.02 0.02 0.08 0.08 0.05 0.04 0.03 0.03 0.02 0.02 0.02 0.02 0.02 0.01 0.03 0.02 0.03 0.04 0.12 0.20 0.10 0.07 0.07 0.04 0.03 0.01 0.02 0.04 0.03 0.01 0.00 0.01 0.01 0.02 0.01 0.01 0.01 0.01 0.03 0.05 0.07 0.11 0.17 0.14 0.14 0.11 0.19 0.09 0.11 0.11 0.08 0.19 0.41 0.25 0.20 0.23 0.15 0.12 0.06 0.13 0.09 0.07 0.19 0.04 0.06 0.13 0.20 0.58 0.25 0.16 0.10 0.17
1.42 1.28 0.92 0.71 1.37 1.33 0.93 1.17 1.11 0.32 0.15 0.11 0.05 0.11 0.07 0.12 0.07 0.09 0.07 0.07 0.04 0.02 0.02 0.03 0.03 0.01 0.01 0.01 0.00 0.01 0.03 0.12 0.12 0.12 0.09 0.10 0.05 0.03 0.02 0.02 0.02 0.04 0.01 0.01 0.01 0.02 0.01 0.01 0.01 0.02 0.05 0.09 0.13 0.12 0.09 0.31 0.38 0.32 0.31 0.32 0.33 0.37 0.41 0.28 0.25 0.37 0.42 0.20 0.23 0.13 0.12 0.13 0.09 0.12 0.06 0.12 0.16 0.07 0.12 0.14 0.16 0.19 0.16 0.11 0.15
0.80 1.48 0.94 1.00 1.69 1.66 1.55 2.03 1.17 0.85 0.55 0.38 0.13 0.13 0.23 0.17 0.15 0.10 0.08 0.05 0.05 0.06 0.07 0.06 0.05 0.03 0.01 0.00 0.01 0.07 0.12 0.14 0.07 0.10 0.06 0.05 0.03 0.02 0.03 0.02 0.04 0.02 0.02 0.01 0.01 0.01 0.01 0.01 0.02 0.08 0.09 0.09 0.15 0.47 0.18 0.30 0.26 0.17 0.10 0.22 0.24 0.47 0.23 0.27 0.30 0.29 0.48 0.49 0.26 0.17 0.24 0.18 0.12 0.15 0.13 0.16 0.16 0.12 0.10 0.12 0.12 0.13 0.13 0.11 0.23
1.23 2.06 2.20 2.68 2.02 1.07 1.50 1.94 1.41 1.30 1.09 1.47 1.02 0.57 0.45 0.57 0.42 0.17 0.12 0.13 0.10 0.08 0.06 0.04 0.02 0.01 0.00 0.00 0.01 0.03 0.01 0.04 0.04 0.01 0.01 0.03 0.03 0.02 0.03 0.03 0.02 0.03 0.02 0.01 0.01 0.01 0.01 0.01 0.03 0.09 0.15 0.21 0.20 0.08 0.06 0.15 0.20 0.10 0.09 0.13 0.12 0.17 0.13 0.20 0.14 0.14 0.20 0.21 0.16 0.21 0.23 0.14 0.10 0.09 0.11 0.14 0.14 0.11 0.15 0.25 0.19 0.10 0.09 0.16 0.17
1.22 1.53 1.46 1.88 1.68 1.39 1.93 1.36 0.96 1.16 0.97 1.39 1.67 1.31 1.45 1.65 0.96 0.17 0.12 0.10 0.08 0.05 0.08 0.02 0.02 0.01 0.01 0.00 0.00 0.01 0.01 0.11 0.01 0.03 0.01 0.00 0.01 0.00 0.02 0.01 0.02 0.02 0.02 0.01 0.03 0.01 0.01 0.08 0.16 0.09 0.10 0.13 0.40 0.08 0.09 0.08 0.05 0.03 0.02 0.03 0.06 0.19 0.16 0.11 0.09 0.13 0.12 0.15 0.12 0.14 0.13 0.12 0.06 0.07 0.10 0.10 0.13 0.26 0.26 0.26 0.32 0.23 0.25 0.21 0.28
1.30 1.43 1.55 2.10 2.10 1.61 1.20 1.24 0.98 1.20 1.43 1.14 1.40 2.21 2.15 1.64 1.04 0.53 0.19 0.15 0.11 0.09 0.10 0.07 0.03 0.02 0.01 0.01 0.01 0.01 0.07 0.03 0.02 0.01 0.00 0.00 0.01 0.01 0.02 0.05 0.04 0.12 0.05 0.04 0.07 0.07 0.12 0.18 0.16 0.12 0.20 0.50 0.64 0.59 0.20 0.02 0.02 0.02 0.02 0.03 0.05 0.05 0.08 0.18 0.15 0.10 0.10 0.15 0.17 0.12 0.15 0.14 0.10 0.12 0.11 0.18 0.46 0.32 0.40 0.36 0.25 0.25 0.18 0.25 0.19
0.94 1.15 1.88 1.90 2.16 2.01 1.57 1.52 1.06 1.24 1.52 1.55 1.90 2.35 1.77 2.32 1.47 1.11 0.63 0.44 0.25 0.09 0.06 0.03 0.01 0.02 0.02 0.03 0.01 0.03 0.06 0.03 0.02 0.01 0.01 0.00 0.00 0.03 0.00 0.03 0.08 0.07 0.11 0.07 0.06 0.03 0.06 0.04 0.06 0.09 0.08 0.69 0.28 0.17 0.31 0.23 0.05 0.02 0.03 0.09 0.04 0.01 0.01 0.01 0.04 0.09 0.17 0.25 0.17 0.15 0.14 0.17 0.23 0.15 0.40 0.33 0.34 0.26 0.17 0.19 0.18 0.24 0.22 0.22 0.18
1.45 1.15 1.48 1.61 1.76 1.92 1.96 2.29 1.78 1.35 1.37 1.62 1.85 1.59 1.58 1.66 1.71 1.54 1.14 1.02 0.41 0.22 0.05 0.02 0.01 0.01 0.03 0.03 0.03 0.03 0.05 0.03 0.01 0.00 0.01 0.01 0.00 0.00 0.03 0.01 0.02 0.04 0.01 0.05 0.04 0.23 0.17 0.14 0.24 0.12 0.28 0.84 0.91 0.33 0.33 0.22 0.41 0.25 0.22 0.07 0.04 0.02 0.01 0.03 0.06 0.43 0.43 0.59 0.37 0.25 0.24 1.12 0.49 0.24 0.21 0.15 0.29 0.24 0.24 0.16 0.36 0.28 0.18 0.19 0.10
0.64 0.57 0.92 1.43 1.82 1.63 1.70 1.91 1.56 1.75 1.78 1.93 1.61 1.74 1.68 1.79 1.92 1.82 1.47 1.16 0.82 0.73 0.49 0.38 0.26 0.09 0.20 0.05 0.02 0.04 0.01 0.00 0.02 0.00 0.01 0.00 0.00 0.01 0.07 0.02 0.04 0.04 0.05 0.02 0.52 0.12 0.17 0.40 0.39 0.53 0.59 0.40 0.19 0.09 0.19 0.21 0.59 0.29 0.16 0.02 0.02 0.01 0.08 0.03 0.51 1.85 2.03 0.58 0.64 0.32 0.25 0.66 0.60 0.25 0.33 0.21 0.18 0.38 0.54 0.18 0.37 0.37 0.41 0.45 0.22
1.02 1.49 1.54 1.16 0.97 0.74 0.80 0.98 1.68 2.20 2.65 2.31 1.73 2.07 1.47 1.33 1.31 0.81 0.99 0.79 0.64 0.91 0.61 0.21 0.32 0.46 0.34 0.34 0.21 0.10 0.09 0.05 0.01 0.01 0.00 0.00 0.00 0.04 0.04 0.43 0.47 0.04 0.04 0.34 0.28 0.14 0.23 0.82 0.65 0.31 0.28 0.54 0.10 0.04 0.05 0.76 0.08 0.03 0.03 0.03 0.03 0.03 0.06 0.04 0.19 1.60 1.08 1.07 0.88 0.65 1.00 1.57 1.03 0.65 0.15 0.10 0.08 0.17 0.86 0.78 0.39 0.87 1.29 1.21 0.47
0.66 0.54 1.01 1.00 0.74 0.71 0.61 0.70 1.26 1.61 2.04 1.44 1.40 1.61 1.64 1.01 1.02 1.07 0.79 0.61 0.52 0.52 0.59 0.46 0.41 0.46 0.21 0.29 0.34 0.34 0.30 0.29 0.30 0.09 0.01 0.01 0.02 0.07 0.74 0.40 0.08 0.08 0.09 0.19 0.09 0.34 0.50 0.53 0.19 0.33 0.19 0.12 0.06 0.03 0.04 0.23 0.10 0.33 0.19 0.08 0.03 0.04 0.03 0.14 0.29 1.05 1.67 1.45 1.02 0.45 0.55 0.82 0.82 0.17 0.07 0.05 0.09 0.30 0.87 0.85 0.37 0.31 1.20 1.19 0.35
0.35 0.35 0.30 0.34 0.35 0.40 0.56 0.60 0.79 1.55 1.69 1.63 1.13 1.00 1.04 1.35 1.08 1.14 0.99 0.68 0.53 0.49 0.45 0.39 0.33 0.31 0.40 0.82 0.64 0.49 0.41 0.48 0.21 0.04 0.05 0.04 0.04 0.52 0.11 0.10 0.18 0.29 0.11 0.10 0.28 0.26 0.51 0.15 0.03 0.12 0.15 0.06 0.05 0.04 0.05 0.12 0.09 0.06 0.05 0.07 0.07 0.07 0.04 0.17 1.45 1.33 1.11 1.34 0.73 0.38 0.23 0.59 0.52 0.25 0.14 0.10 0.12 0.51 1.22 0.77 0.34 0.69 1.46 1.66 0.96
0.66 0.46 0.10 0.12 0.09 0.23 0.34 0.38 0.57 0.60 1.06 1.45 1.78 1.79 0.98 1.18 1.06 1.16 0.87 0.73 0.72 0.59 0.45 0.45 0.51 0.54 0.68 0.45 0.59 0.67 0.57 0.56 0.34 0.12 0.17 0.05 0.13 0.61 0.23 0.19 0.17 0.23 0.30 0.20 0.21 0.21 0.22 0.19 0.26 0.06 0.09 0.09 0.05 0.09 0.13 0.12 0.07 0.04 0.10 0.11 0.11 0.09 0.16 1.40 2.10 1.68 1.51 1.07 0.89 0.54 0.22 0.43 0.31 0.12 0.10 0.10 0.12 0.22 0.44 0.43 0.34 0.94 1.87 2.43 1.75
1.86 1.03 0.59 0.52 0.24 0.12 0.03 0.28 0.32 0.35 1.25 1.28 1.63 1.39 1.00 0.75 1.04 1.44 0.62 0.58 0.44 0.45 0.31 0.45 0.37 0.50 0.54 0.57 0.83 0.91 1.25 1.58 0.98 0.64 0.35 0.26 0.20 0.49 0.33 0.26 0.11 0.16 0.23 0.12 0.16 0.12 0.12 0.12 0.06 0.01 0.01 0.04 0.06 0.08 0.10 0.09 0.11 0.11 0.15 0.20 0.19 0.23 0.60 1.61 1.27 0.92 1.35 1.93 1.20 0.55 0.49 0.40 0.24 0.15 0.14 0.16 0.23 0.34 0.22 0.23 0.39 1.26 2.34 2.35 0.82
0.14 0.11 0.09 0.14 0.17 0.28 0.35 0.30 0.26 0.49 1.15 1.05 1.94 1.26 0.60 0.70 0.78 0.73 0.52 0.48 0.22 0.37 0.29 0.38 0.36 0.40 0.29 0.24 0.48 0.83 1.51 1.72 1.17 0.45 0.58 0.61 0.48 0.41 0.48 0.44 0.25 0.39 0.08 0.15 0.18 0.10 0.05 0.12 0.11 0.08 0.03 0.04 0.08 0.11 0.15 0.17 0.15 0.18 0.22 0.40 0.65 0.64 1.27 2.09 3.41 3.72 3.12 2.44 1.60 0.89 0.74 0.48 0.16 0.15 0.18 0.17 0.21 0.16 0.16 0.13 0.55 1.12 1.64 1.11 0.69
0.10 0.11 0.13 0.13 0.10 0.05 0.03 0.03 0.03 0.12 0.60 1.27 1.56 1.08 0.91 0.84 0.43 0.43 0.39 0.33 0.37 0.31 0.31 0.66 0.33 0.29 0.48 0.67 0.60 0.68 0.75 0.81 1.10 0.95 1.31 0.89 0.54 0.37 0.75 0.64 0.36 0.23 0.30 0.23 0.15 0.05 0.04 0.04 0.22 0.09 0.02 0.03 0.07 0.11 0.17 0.20 0.25 0.78 0.46 0.31 0.44 1.02 2.75 2.24 3.19 2.54 2.00 3.26 2.82 1.65 1.06 0.47 0.28 0.22 0.19 0.14 0.12 0.12 0.14 0.33 0.80 1.26 0.82 0.54 0.74
0.01 0.05 0.12 0.25 0.34 0.55 0.55 0.34 0.21 0.13 0.11 0.40 0.74 0.72 0.62 0.60 0.68 0.59 0.45 0.40 0.46 0.79 0.78 1.08 0.65 0.76 0.93 1.13 1.11 1.69 2.05 1.31 0.69 0.48 0.35 0.52 0.32 0.39 0.34 0.41 0.15 0.58 0.37 0.48 0.11 0.06 0.12 0.07 0.07 0.02 0.01 0.02 0.05 0.11 0.23 0.24 1.61 0.64 0.24 0.41 2.83 3.66 1.35 0.67 1.13 0.65 1.27 2.89 2.74 2.65 0.94 0.63 0.56 0.44 0.30 0.21 0.13 0.13 0.52 0.84 1.03 0.77 0.63 0.43 0.39
0.00 0.00 0.02 0.09 0.13 0.17 0.23 0.45 0.52 0.57 0.72 1.07 1.16 0.82 0.72 0.67 0.80 0.55 0.50 0.45 0.42 0.42 0.82 0.70 0.39 0.40 0.73 1.02 1.81 3.55 2.53 0.57 0.30 0.33 0.33 0.07 0.04 0.04 0.08 0.17 0.23 0.22 0.09 0.09 0.10 0.08 0.11 0.11 0.07 0.02 0.03 0.04 0.07 0.11 0.15 1.57 1.76 0.50 0.44 0.38 0.40 0.46 0.54 0.52 0.63 0.69 1.48 2.52 2.71 2.45 1.18 0.95 0.80 0.55 0.58 0.52 0.59 0.62 0.92 1.00 0.79 0.82 0.77 0.56 0.38
0.04 0.04 0.02 0.02 0.08 0.46 0.65 0.72 0.64 0.59 1.08 1.11 0.85 0.31 0.53 0.32 0.35 0.30 0.41 0.34 0.30 0.34 0.53 0.58 1.13 1.61 1.27 0.79 0.72 0.91 0.92 0.63 0.46 0.42 0.14 0.11 0.21 0.19 0.27 0.47 0.31 0.10 0.15 0.13 0.13 0.22 0.12 0.08 0.07 0.08 0.17 0.34 0.24 0.27 0.25 0.62 0.74 0.36 0.34 0.36 0.45 1.56 0.81 0.49 0.50 0.88 1.51 2.05 2.46 1.88 1.11 1.04 1.46 1.53 1.06 1.07 1.10 1.16 1.12 0.64 0.41 0.40 0.46 0.58 0.48
0.11 0.13 0.08 0.19 0.29 0.30 0.14 0.21 0.37 0.54 0.37 0.40 0.29 0.22 0.29 0.43 0.52 0.38 0.69 0.75 0.67 0.57 0.51 1.03 1.09 1.40 1.33 0.80 1.00 0.90 0.78 0.65 0.64 0.66 0.50 0.53 0.69 0.67 0.58 0.31 0.46 0.40 0.23 0.17 0.08 0.05 0.04 0.05 0.06 0.07 0.05 0.04 0.12 0.44 0.21 0.15 0.24 0.30 0.34 0.44 0.51 0.51 0.49 0.63 0.56 0.82 1.43 1.98 1.71 2.01 1.60 1.19 1.22 1.22 1.69 2.08 2.01 1.17 0.90 0.66 0.74 0.66 0.52 0.52 0.51
0.58 0.36 0.35 0.27 0.23 0.17 0.20 0.19 0.18 0.12 0.06 0.08 0.20 0.25 0.38 0.26 0.33 0.49 0.54 0.45 0.57 0.57 0.43 0.71 0.64 0.74 0.95 0.98 0.84 0.89 1.18 0.76 0.59 0.71 0.83 0.69 0.76 0.51 0.27 0.46 0.40 0.42 0.91 0.35 0.19 0.33 0.20 0.13 0.09 0.08 0.05 0.06 0.12 0.08 0.07 0.11 0.13 0.13 0.24 0.41 0.45 0.43 0.49 0.54 0.74 1.26 1.56 2.05 1.96 2.15 1.46 1.20 1.03 1.22 1.11 1.74 1.78 1.77 1.43 1.69 1.22 0.72 0.56 0.47 0.57
0.72 0.29 0.36 0.43 0.32 0.23 0.26 0.08 0.05 0.09 0.09 0.12 0.13 0.12 0.11 0.16 0.50 0.28 0.24 0.54 0.79 0.90 0.62 0.56 0.77 0.55 0.54 1.20 1.08 0.83 0.72 0.73 0.50 0.77 0.78 0.61 0.35 0.29 0.27 0.16 0.17 0.39 0.33 0.24 0.27 0.26 0.16 0.05 0.22 0.32 0.34 0.50 0.07 0.06 0.08 0.13 0.12 0.12 0.17 0.30 0.42 0.39 0.40 0.67 1.09 1.19 1.12 1.54 1.85 1.70 1.25 0.92 0.71 1.04 1.60 1.70 1.85 2.35 1.95 1.72 1.11 0.80 0.74 1.24 1.76
1.28 0.65 0.36 0.53 0.64 0.77 0.55 0.30 0.37 0.27 0.17 0.09 0.06 0.07 0.13 0.15 0.18 0.14 0.28 0.43 0.66 0.40 0.38 0.65 1.15 0.80 1.18 1.19 1.38 0.35 0.54 0.56 0.61 0.73 1.28 0.99 1.03 1.02 0.53 0.53 0.79 0.66 0.67 0.76 0.71 0.85 0.84 1.05 1.01 0.94 0.75 0.45 0.09 0.04 0.04 0.06 0.10 0.09 0.22 0.16 0.33 0.42 0.44 0.65 0.83 0.95 0.99 1.41 1.10 1.12 1.58 1.48 1.44 1.42 1.36 2.01 2.33 2.40 1.76 1.91 1.71 1.55 2.02 1.69 1.82
2.19 2.55 2.65 2.18 1.90 1.38 0.96 0.82 0.81 0.86 0.92 0.38 0.22 0.13 0.13 0.28 0.16 0.42 0.58 0.33 0.67 0.49 0.58 0.59 0.41 0.70 0.94 0.56 0.42 0.75 0.57 0.64 0.77 0.71 0.67 0.62 0.72 0.59 0.68 0.79 0.86 0.56 0.51 0.36 0.86 1.04 1.05 1.18 1.08 1.27 0.44 0.26 0.19 0.16 0.04 0.27 0.04 0.08 0.07 0.12 0.19 0.35 0.42 0.39 0.56 0.84 0.92 0.85 0.80 0.82 1.06 1.36 1.98 1.69 1.65 1.72 1.60 1.80 2.28 2.08 2.02 1.85 2.30 1.68 1.49
1.94 2.10 2.39 2.27 2.10 1.84 1.89 1.99 2.18 1.84 1.57 1.90 1.05 0.90 0.82 0.97 1.06 1.04 1.47 1.14 0.94 0.77 0.92 0.84 0.88 1.30 1.34 0.94 0.94 0.27 0.35 0.49 0.34 0.41 0.49 0.65 0.67 0.58 0.63 0.43 0.76 0.78 0.95 1.37 0.98 1.11 0.96 1.11 1.34 0.86 0.68 0.42 0.23 0.11 0.09 0.07 0.08 0.08 0.10 0.12 0.20 0.29 0.33 0.32 0.42 0.51 0.75 1.17 1.36 1.18 1.37 2.25 2.61 2.22 1.35 1.16 1.26 1.91 1.81 1.93 1.83 1.76 1.76 1.82 1.83
1.47 1.42 1.17 1.39 1.60 1.56 1.76 1.59 1.40 1.66 1.72 1.34 1.04 0.69 0.52 0.48 0.94 0.81 0.86 0.97 1.01 0.87 1.01 0.90 1.01 0.87 1.16 1.34 1.06 1.00 1.21 1.35 1.57 1.11 0.99 1.11 1.67 1.77 1.71 1.48 1.17 1.00 1.15 1.37 1.11 1.45 1.41 1.22 0.83 0.53 0.33 0.13 0.23 0.09 0.10 0.07 0.07 0.10 0.09 0.10 0.17 0.21 0.21 0.30 0.42 0.75 0.59 0.55 1.23 1.48 1.18 1.71 1.43 1.31 1.18 1.02 1.13 1.11 1.32 1.94 1.84 2.02 1.89 1.91 2.43
1.99 1.79 1.64 1.39 1.37 1.56 1.24 1.47 1.53 1.43 1.43 1.46 1.27 1.21 1.14 0.92 0.48 0.39 0.69 0.69 0.47 0.25 0.57 1.00 0.75 0.94 1.00 1.00 1.82 2.06 1.31 1.46 1.58 1.70 1.77 1.31 1.16 1.11 1.73 2.04 1.72 1.24 1.36 2.03 2.12 2.21 1.87 1.77 1.58 1.04 0.86 0.74 0.56 0.61 0.76 0.79 0.83 0.43 0.28 0.32 0.25 0.25 0.45 0.53 0.75 0.66 0.85 1.30 1.42 1.01 0.91 1.03 1.60 1.74 2.02 1.72 1.30 1.02 0.86 1.35 1.54 2.13 2.34 2.62 2.37
1.18 1.38 1.80 2.44 2.33 1.33 1.12 1.35 1.64 1.50 1.91 2.17 1.84 1.65 1.53 1.41 1.47 0.82 0.34 0.44 0.35 0.29 0.65 0.88 1.19 0.96 0.69 0.61 0.89 0.95 0.84 1.14 1.73 1.45 1.51 1.52 1.73 1.73 2.17 1.89 2.07 1.90 1.52 1.75 1.99 1.91 1.18 0.95 0.60 0.43 0.42 0.49 0.68 0.99 1.13 0.56 0.53 0.41 0.29 0.40 0.38 0.30 0.37 0.52 0.74 0.93 0.73 0.74 0.95 0.83 0.77 0.96 1.64 1.54 1.17 1.50 1.81 1.57 1.22 1.26 1.38 1.57 2.07 2.06 1.92
1.17 1.14 1.30 1.32 1.45 1.50 1.72 2.23 2.83 2.97 2.98 3.09 3.04 3.21 3.37 2.91 2.38 2.05 1.92 1.35 1.07 0.67 0.96 1.16 1.46 0.78 0.82 0.91 0.83 1.15 1.21 0.92 1.03 1.05 0.94 1.12 0.91 0.91 1.00 1.91 3.04 3.95 3.46 2.27 1.52 1.11 0.96 0.79 0.69 0.85 0.90 0.47 0.51 0.66 0.52 0.50 0.51 0.53 0.52 0.43 0.32 0.23 0.36 0.58 0.69 0.64 0.88 0.66 0.81 1.49 1.65 1.45 1.30 1.25 1.65 2.11 1.85 1.57 1.49 1.38 1.10 1.22 2.01 1.96 2.32
1.44 0.82 0.89 1.21 1.43 1.16 1.57 1.78 1.83 1.63 1.54 2.14 2.46 2.48 2.32 2.93 3.40 3.32 2.97 3.15 2.76 2.18 1.88 2.29 1.58 1.14 1.67 1.37 0.96 0.75 0.72 1.11 0.95 1.00 0.75 0.73 1.02 1.20 1.75 1.32 1.16 1.33 1.10 1.11 1.18 0.79 0.53 0.54 0.56 0.52 0.72 0.58 0.58 0.55 0.42 0.42 0.48 0.46 0.39 0.36 0.72 0.75 0.84 0.82 0.86 1.26 1.15 1.11 1.43 1.86 1.89 1.74 1.52 1.74 1.90 1.71 1.60 1.42 1.11 1.21 1.34 1.78 1.85 2.23 3.16
0.94 0.88 1.15 1.18 1.02 0.96 1.26 1.54 2.32 3.05 3.05 3.25 2.62 2.10 2.16 2.01 2.10 1.93 2.21 2.43 2.60 2.94 3.43 1.51 1.75 1.98 1.13 1.50 1.49 1.67 1.27 1.05 0.87 0.70 1.03 1.00 1.04 2.27 3.18 1.87 1.65 1.28 1.35 1.03 0.97 1.15 0.87 1.10 1.21 0.89 0.69 0.73 1.16 0.99 0.63 0.88 1.19 1.28 1.67 2.50 2.30 2.23 1.95 1.78 2.00 1.88 1.75 2.08 1.97 1.86 1.53 1.16 1.80 1.87 2.14 2.82 1.92 1.66 1.72 1.85 1.93 2.23 2.27 2.51 2.80
0.97 0.85 0.87 0.92 1.43 1.18 1.13 1.46 1.31 1.41 1.48 1.28 1.65 1.76 1.75 2.18 1.94 1.58 1.82 2.75 3.33 2.96 2.79 2.61 1.82 1.44 1.88 1.18 0.76 1.50 1.37 1.36 1.33 1.58 1.95 2.39 2.41 2.44 3.08 2.56 1.91 1.54 1.25 1.32 1.62 1.87 1.37 1.26 1.80 1.78 1.66 2.60 2.99 1.76 2.05 2.40 2.19 3.12 3.05 2.80 2.58 2.28 2.34 2.36 2.04 2.64 2.47 2.43 2.23 2.26 2.54 2.89 2.79 2.58 3.33 2.66 2.42 2.25 1.95 1.77 1.54 1.80 2.18 2.14 2.32
1.36 1.25 1.17 1.18 0.89 1.40 1.60 1.38 1.29 1.48 1.44 1.43 1.28 1.34 1.68 0.87 0.94 1.25 1.52 2.77 1.69 2.24 3.04 3.29 2.97 2.22 2.01 2.85 1.68 0.97 1.92 2.42 2.32 2.71 2.70 1.85 2.07 2.05 1.93 2.13 2.46 2.02 1.79 1.51 1.56 1.64 1.84 2.71 1.76 2.02 2.50 2.28 2.18 2.36 2.65 2.33 2.60 2.60 2.82 3.15 3.04 2.52 2.67 3.55 3.00 2.28 2.03 2.05 2.11 2.77 2.98 2.53 2.63 3.91 4.76 2.71 2.22 1.80 1.79 1.68 1.98 1.95 1.91 1.81 1.59
0.97 1.55 1.23 0.94 1.12 1.27 1.15 0.96 1.02 1.00 1.04 0.98 0.92 1.21 1.35 1.37 1.00 1.08 1.77 1.22 1.38 1.37 1.56 1.65 2.73 2.31 2.31 2.79 3.03 1.58 1.74 3.04 3.08 2.16 1.87 1.28 2.06 3.02 2.88 1.75 1.60 1.69 1.95 2.08 1.91 1.55 1.43 1.76 1.82 1.83 1.54 2.05 2.31 2.01 1.73 2.37 2.70 3.04 2.85 3.36 1.98 2.23 2.35 2.30 1.74 1.72 1.61 1.93 1.70 1.56 1.90 2.75 3.74 5.53 4.48 2.66 1.73 1.52 1.50 1.68 2.37 2.34 1.71 1.78 1.60
0.90 0.86 1.02 1.54 1.34 0.84 0.97 1.04 0.79 0.75 0.63 0.96 0.53 0.78 0.89 0.97 1.15 0.73 0.53 0.52 1.02 1.74 2.01 1.93 1.41 1.26 1.14 1.21 1.32 1.26 1.37 1.64 2.18 2.54 3.31 3.56 3.11 2.34 2.85 2.16 1.40 1.82 1.67 1.10 1.06 1.08 1.18 1.62 1.73 1.91 2.78 3.07 2.20 2.36 2.47 2.32 2.48 3.77 4.47 3.20 2.64 2.00 1.66 1.78 2.44 2.58 2.00 1.69 1.68 2.17 2.44 3.26 3.58 2.34 1.59 2.14 3.34 2.80 2.66 2.50 1.75 1.54 1.99 2.23 2.16
1.71 1.31 1.08 1.95 2.27 1.00 1.30 1.49 1.60 1.66 1.08 0.94 1.32 2.36 1.02 0.48 0.73 0.56 0.58 0.53 0.49 0.74 0.72 0.64 0.93 1.05 1.19 1.20 2.15 1.87 1.97 2.03 2.06 2.39 2.22 1.62 1.61 1.30 1.79 2.49 1.49 1.05 1.68 1.89 1.48 1.00 1.28 1.33 1.55 2.03 2.12 2.53 1.58 1.76 1.76 1.61 1.85 1.76 1.57 1.60 1.92 2.72 2.68 1.77 1.65 1.87 2.09 2.53 2.70 1.97 2.38 3.58 3.16 2.35 2.14 1.34 1.38 1.69 2.37 2.82 3.37 3.26 2.68 2.38 2.39
1.05 1.33 1.39 1.08 2.45 2.66 1.52 1.50 1.76 1.55 1.28 1.59 2.25 2.04 1.01 0.74 0.77 1.07 1.80 2.24 2.25 1.54 1.55 1.17 0.64 0.79 0.66 0.87 1.08 1.45 2.02 2.02 1.03 1.16 1.14 1.28 1.14 1.07 1.26 1.42 1.35 1.17 1.46 1.95 2.75 2.57 1.82 2.12 2.56 3.03 2.20 2.52 4.32 3.43 2.23 2.31 1.45 1.94 2.50 2.59 2.28 2.46 2.79 3.02 2.51 2.11 2.23 2.21 2.14 2.54 3.02 2.75 2.56 3.17 2.90 2.85 2.52 1.98 2.02 2.14 1.83 2.05 2.45 2.47 2.11
0.90 0.88 0.81 0.63 0.94 2.16 1.90 1.19 1.32 1.64 0.90 1.07 1.52 3.04 2.69 1.67 1.51 1.06 1.17 1.00 0.90 1.52 1.92 1.35 1.16 0.87 1.10 1.18 1.31 0.95 0.75 0.70 0.67 0.70 0.77 0.72 0.88 0.99 1.12 1.71 1.48 1.19 1.11 1.06 1.48 1.91 2.28 1.88 2.28 3.40 2.36 1.92 2.55 3.37 3.22 3.06 2.58 2.15 2.09 2.92 2.60 2.53 3.06 3.34 3.54 3.24 2.63 3.05 3.26 3.04 2.85 2.68 2.73 2.39 2.31 2.32 2.24 2.17 2.01 1.76 1.84 1.92 1.39 1.50 1.59
0.68 1.08 1.05 0.73 1.03 0.73 1.82 1.89 1.82 1.74 1.30 0.96 1.04 1.09 1.80 2.97 1.76 1.14 1.04 0.68 0.70 0.83 0.74 1.23 1.36 1.32 0.94 0.42 0.41 0.40 0.49 0.43 0.48 0.67 1.09 1.05 0.81 0.67 0.72 0.93 1.00 1.12 1.25 1.42 2.02 1.74 1.27 1.25 1.08 1.34 1.31 1.56 1.31 1.70 2.13 1.81 2.36 1.83 1.32 1.49 1.72 2.28 2.99 2.23 2.09 1.80 1.85 1.53 1.71 1.62 1.52 1.53 1.77 1.74 1.73 1.73 2.16 2.25 2.13 2.07 1.80 1.64 1.80 1.82 1.72
0.51 0.45 0.78 0.66 1.01 1.19 0.84 1.80 2.38 2.35 1.58 0.74 0.65 0.69 0.97 1.20 0.77 1.21 1.28 0.87 0.63 0.93 1.28 1.08 0.69 0.49 0.47 0.98 0.61 0.46 0.44 0.44 0.43 0.52 0.43 0.71 0.91 1.56 1.49 1.27 1.58 1.74 1.75 1.65 1.37 0.84 0.92 1.14 1.38 1.80 2.71 2.84 2.27 2.00 1.27 1.71 1.75 1.54 1.26 1.07 1.63 2.06 2.24 1.92 2.01 1.72 1.45 1.40 1.34 1.28 1.43 1.33 1.46 1.56 1.47 1.57 1.72 1.93 1.79 1.79 1.96 2.05 1.85 1.97 1.91
0.34 0.42 0.64 0.59 0.88 0.96 1.29 1.28 1.86 2.24 1.59 1.31 1.82 2.43 1.91 1.48 0.99 0.75 1.42 2.16 2.12 1.47 1.13 1.28 1.28 1.34 1.12 0.99 1.63 1.37 1.45 0.91 0.60 0.77 1.16 1.42 1.23 1.23 1.37 1.02 0.96 1.08 1.69 1.60 2.00 1.88 1.44 1.40 1.40 1.92 2.21 2.03 2.27 1.88 1.42 1.47 1.11 1.66 1.89 2.16 1.82 1.41 1.31 0.97 0.88 1.32 1.20 1.08 1.08 1.26 1.42 1.08 0.97 0.92 1.03 1.40 1.28 0.80 0.79 0.89 0.90 1.15 1.29 1.04 0.95
0.61 0.32 0.46 0.49 0.88 1.41 1.53 1.57 1.46 1.01 2.36 2.84 1.98 1.83 2.29 2.38 1.17 1.75 1.83 2.05 2.30 2.35 3.07 2.79 2.15 1.59 1.31 1.49 1.89 1.62 1.43 1.40 1.76 2.30 2.14 1.85 1.10 1.00 0.92 0.85 1.00 0.92 1.02 0.99 1.20 2.05 2.19 2.18 1.59 1.43 1.51 1.18 0.98 0.96 0.98 1.14 1.45 1.25 1.42 1.31 0.94 0.96 1.04 0.84 0.74 0.81 0.87 0.94 0.83 1.06 1.12 1.08 0.97 1.00 1.02 0.90 0.84 0.76 0.78 0.83 1.06 0.87 0.94 0.69 0.53
0.60 0.35 0.30 0.26 0.45 0.55 0.97 0.74 0.61 0.81 1.08 1.37 2.25 2.32 1.95 1.73 2.13 2.47 2.11 2.24 2.13 1.74 1.62 1.88 1.52 1.17 0.96 1.54 2.11 2.85 3.30 3.09 2.64 2.43 1.73 1.26 1.28 1.38 2.13 2.50 2.18 2.36 2.13 2.19 2.09 1.26 1.29 0.77 0.40 0.40 0.49 0.83 0.81 0.60 0.40 0.39 0.35 0.41 0.46 0.36 0.31 0.50 0.44 0.39 0.49 0.76 1.08 0.90 0.66 0.37 0.45 0.46 0.44 0.75 1.29 1.35 1.75 1.72 1.66 1.29 1.28 1.34 1.42 1.22 1.14
1.15 1.16 1.26 1.05 0.98 0.85 0.58 0.64 0.66 0.74 0.87 0.85 0.84 1.66 2.26 2.23 1.83 1.93 2.01 1.81 1.94 2.40 2.44 2.41 2.16 1.76 1.74 2.13 2.15 2.27 2.45 2.22 1.73 1.52 1.41 1.46 1.49 1.53 1.50 1.39 1.20 1.21 0.91 0.54 0.64 0.61 0.60 0.63 0.59 0.51 0.42 0.44 0.50 0.46 0.25 0.37 0.31 0.31 0.33 0.34 0.34 0.29 0.26 0.25 0.35 0.51 0.74 0.83 1.01 0.98 0.99 0.79 0.50 0.48 0.41 0.88 1.13 1.12 1.00 0.88 0.92 1.01 0.88 0.96 0.60
0.95 0.94 0.90 0.83 0.94 1.02 1.01 0.91 0.88 0.71 0.65 0.72 0.87 0.77 1.36 1.88 2.04 2.20 2.60 2.11 1.96 1.85 2.24 2.36 2.16 2.14 1.91 1.83 1.86 1.86 2.27 2.27 1.78 1.46 1.61 1.69 1.41 1.03 0.82 0.81 0.83 0.85 0.91 0.76 0.55 0.46 0.40 0.48 0.67 0.86 0.59 0.33 0.43 0.60 0.56 0.33 0.33 0.26 0.20 0.32 0.30 0.33 0.28 0.46 0.82 0.79 1.03 1.08 0.80 0.68 0.86 0.95 0.74 0.68 0.64 0.52 0.49 0.45 0.61 0.72 0.51 0.51 0.85 0.49 0.42